This demonstration page uses our WeatherBlox Daily Observations layout. Learn more.

Left ArrowRight Arrow

47.50024, -111.30081

Hourly Observations for May 30, 2019

Temp ( °F °C ) Dew Point ( °F °C ) Humidity (%) Winds ( mph kmh ) Pressure ( in mb ) Visibility ( mi km ) Precip ( " mm )
12:53 am 00:53 Clear 59 15 33 0.6 38 38 S 15 24 29.81 1010 10 16 0.00 0.00
1:53 am 01:53 Clear 56 13.3 34 1.1 44 44 SSW 13 20 29.81 1009 10 16 0.00 0.00
2:53 am 02:53 Clear 57 13.9 34 1.1 42 42 SSW 13 20 29.81 1010 10 16 0.00 0.00
3:53 am 03:53 Clear 54 12.2 34 1.1 47 47 SSW 14 22 29.81 1010 10 16 0.00 0.00
4:53 am 04:53 Clear 54 12.2 34 1.1 47 47 SSW 14 22 29.82 1010 10 16 0.00 0.00
5:53 am 05:53 Sunny 54 12.2 35 1.7 49 49 SSW 16 26 29.82 1010 10 16 0.00 0.00
6:53 am 06:53 Sunny 56 13.3 36 2.2 47 47 SSW 13 20 29.83 1010 10 16 0.00 0.00
7:53 am 07:53 Sunny 61 16.1 37 2.8 41 41 SSW 13 20 29.83 1010 10 16 0.00 0.00
8:53 am 08:53 Sunny 65 18.3 39 3.9 39 39 SSW 16 26 29.84 1010 10 16 0.00 0.00
9:53 am 09:53 Sunny 70 21.1 42 5.6 37 37 SSW 15 24 29.84 1010 10 16 0.00 0.00
10:53 am 10:53 Sunny 73 22.8 40 4.4 30 30 SW 13 20 29.85 1011 10 16 0.00 0.00
11:53 am 11:53 Sunny 75 23.9 41 5 29 29 W 13 20 29.85 1011 10 16 0.00 0.00
12:53 pm 12:53 Sunny 77 25 41 5 28 28 NNW 5 7 29.84 1011 10 16 0.00 0.00
1:53 pm 13:53 Sunny 79 26.1 42 5.6 27 27 Calm 29.84 1010 10 16 0.00 0.00
2:53 pm 14:53 Mostly Cloudy 76 24.4 45 7.2 33 33 N 5 7 29.84 1010 10 16 0.00 0.00
3:53 pm 15:53 Mostly Cloudy 79 26.1 43 6.1 28 28 W 9 15 29.83 1010 10 16 0.00 0.00
4:23 pm 16:23 Mostly Cloudy with Thunderstorms 68 20 46 7.8 45 45 W 22 35 29.74 1007 9 14 0.00 0.00
4:48 pm 16:48 Cloudy with Heavy Rain 61 16 48 9 63 63 W 15 24 29.83 1010 5 8 0.04 1.02
4:53 pm 16:53 Cloudy with Rain 61 16.1 50 10 67 67 W 10 17 29.92 1013 3 5 0.06 1.52
5:10 pm 17:10 Cloudy with Thunderstorms 62 16.7 49 9.4 62 62 VRB 5 7 29.84 1010 7 11 0.02 0.51
5:25 pm 17:25 Cloudy with Light Rain 63 17.2 47 8.3 56 56 S 10 17 29.81 1009 10 16 0.02 0.51
5:34 pm 17:34 Cloudy with Thunderstorms 64 17.8 47 8.3 54 54 WNW 6 9 29.83 1010 10 16 0.02 0.51
5:49 pm 17:49 Cloudy with Light Rain 64 18 46 8 52 52 NNE 3 6 29.82 1010 6 10 0.03 0.76
5:53 pm 17:53 Cloudy with Light Rain 64 17.8 46 7.8 52 52 WSW 8 13 29.93 1014 7 11 0.03 0.76
6:53 pm 18:53 Cloudy with Light Rain 66 18.9 44 6.7 45 45 E 3 6 29.90 1013 10 16 0.01 0.25
7:53 pm 19:53 Mostly Cloudy 65 18.3 45 7.2 49 49 ENE 8 13 29.90 1012 10 16 0.00 0.03
8:53 pm 20:53 Cloudy 62 16.7 49 9.4 62 62 W 12 19 29.89 1012 10 16 0.00 0.00
9:53 pm 21:53 Partly Cloudy 61 16.1 48 8.9 63 63 NW 21 33 29.92 1013 10 16 0.00 0.00
10:53 pm 22:53 Clear 57 13.9 49 9.4 74 74 NW 16 26 29.96 1014 7 11 0.00 0.00
11:53 pm 23:53 Cloudy with Haze 57 13.9 49 9.4 74 74 NW 15 24 29.98 1015 4 6 0.00 0.00

Powered by AerisWeather